{"data":{"norad_id":48690,"intl_designator":"2021-044BE","name":"STARLINK-2740","alt_names":[],"object_type":"PAYLOAD","status":"ACTIVE","operator":null,"country":"US","launch_date":"2021-05-26","launch_site_code":"AFETR","launch_vehicle":null,"mission":null,"orbit_class":"UNKNOWN","rcs_meters":null,"size_class":null,"mass_kg":null,"dimensions":null,"purposes":["comms"],"wikipedia_slug":null,"has_3d_model":false,"image_url":null,"decayed_at":null,"tle_current":{"epoch":"2026-09-19T22:32:38.018688Z","epoch_age_seconds":89742,"freshness":"FRESH","line1":"1 48690U 21044BE  26262.93932892 -.00000515  00000+0 -48283-5 0  9993","line2":"2 48690  53.1609 251.3172 0001243 126.5101 233.6016 15.31689734294126","mean_motion":15.31689734,"eccentricity":0.0001243,"inclination_deg":53.1609,"raan_deg":251.3172,"arg_perigee_deg":126.5101,"mean_anomaly_deg":233.6016,"bstar":-4.8283e-6,"rev_number":29412,"period_min":94.013818075247,"perigee_km":469.91927859396,"apogee_km":471.62191702278,"semimajor_km":6848.9075978084,"source":"CELESTRAK","updated_at":"2026-09-20T09:00:39.244912Z"}}}